Theta_e
314 312 310 312 312 313 313 314 313 310 311 309 307 305 303 303 301 300 299 298 298 298 299 298 298 297 297 297 297 296 297 297 297 297 297 298 298 298 298 298 299 298 297 298
315 311 311 312 311 311 315 311 310 311 311 309 307 305 304 303 301 300 298 298 298 298 298 298 297 297 296 296 296 297 296 297 297 297 297 298 298 297 298 298 298 298 298 298
312 311 312 312 310 309 313 309 307 308 309 308 309 305 304 303 302 299 298 298 298 298 298 298 297 297 296 296 296 296 297 296 298 297 297 297 297 297 297 298 298 298 298 298
312 308 311 311 309 308 312 308 307 308 309 311 308 308 305 301 299 298 298 298 298 298 298 297 297 297 296 296 297 296 297 297 297 297 297 296 296 296 297 296 297 297 298 298
309 308 306 308 306 308 309 307 307 310 309 311 309 304 301 299 297 297 297 298 298 298 298 297 297 296 296 297 297 297 296 296 296 296 296 296 296 296 295 295 296 297 297 297
309 306 305 305 307 308 308 306 312 311 311 310 305 304 299 297 296 296 297 297 297 298 297 298 296 296 297 297 296 295 296 296 296 296 296 296 296 296 295 295 295 295 297 297
308 306 305 304 306 308 306 305 311 310 309 307 305 304 300 297 297 297 297 297 297 298 298 296 296 297 297 296 296 295 295 295 296 296 296 296 297 297 296 296 295 295 296 297
312 313 304 303 304 302 305 303 304 306 305 304 306 302 300 297 297 297 297 297 297 298 296 296 296 297 297 296 296 295 295 295 296 296 297 298 298 298 298 298 297 296 296 296
306 308 305 303 303 302 303 300 301 302 303 303 303 300 299 298 297 297 297 296 297 297 297 296 296 297 296 296 296 295 296 296 297 297 298 298 298 298 298 298 298 298 297 296
305 307 305 304 305 302 301 301 301 301 302 302 301 298 295 296 296 296 296 296 297 296 295 296 297 296 296 296 295 296 297 297 297 298 298 298 298 298 298 298 298 299 299 298
304 306 306 306 301 300 300 299 299 300 300 298 300 297 296 296 296 296 296 296 297 296 295 296 296 296 295 296 296 296 296 297 297 297 298 297 297 297 299 299 300 300 301 299
304 304 305 302 300 300 299 298 298 300 300 299 299 297 297 297 296 296 296 296 297 295 295 296 296 295 295 295 296 296 297 297 297 297 297 297 297 297 298 299 299 300 302 299
304 305 307 302 301 302 300 298 298 298 297 299 295 297 297 296 296 296 296 297 295 295 295 296 295 295 295 295 296 297 298 298 297 297 297 297 297 296 297 298 299 299 299 298
302 305 304 306 302 300 301 299 298 297 296 294 295 294 296 295 295 295 296 297 295 295 295 296 295 295 295 295 295 297 298 298 298 297 297 297 296 296 296 297 298 299 300 299
301 305 302 300 299 299 299 298 298 294 296 293 294 294 295 295 295 295 296 295 294 294 295 296 295 295 294 295 295 297 297 298 297 297 297 297 296 296 296 297 297 299 302 300
301 304 301 302 299 299 298 299 298 298 296 295 295 294 295 295 295 296 296 294 294 294 295 295 294 294 294 295 294 296 295 297 297 297 297 297 296 297 296 296 297 299 299 299
301 301 302 304 299 299 299 299 298 296 296 295 294 294 295 295 296 296 294 294 294 294 295 295 294 294 294 295 294 294 294 295 296 295 296 296 297 296 296 296 296 297 298 298
301 301 302 305 300 305 298 297 297 296 296 296 295 295 295 296 296 296 294 294 293 294 295 294 293 294 294 296 293 294 294 295 296 296 294 295 296 297 296 296 296 296 296 297
298 301 304 304 302 299 297 297 295 294 295 296 295 295 295 296 295 295 294 293 293 294 295 293 294 294 296 296 293 293 294 296 296 295 293 294 295 296 296 296 295 295 295 295
298 298 304 303 303 306 298 296 295 295 296 295 295 295 296 295 293 293 293 292 292 294 294 293 294 295 297 296 293 294 294 296 296 295 293 293 294 294 295 295 295 295 293 294
301 301 303 303 303 301 296 295 295 297 296 295 295 296 296 295 294 293 292 292 292 294 294 293 295 295 297 296 294 294 295 296 295 295 295 293 292 293 293 294 294 294 293 292
302 304 305 300 301 303 295 296 296 295 295 295 295 296 295 293 293 292 292 291 292 294 293 292 295 296 297 296 295 294 295 295 294 293 294 294 292 291 291 291 291 292 292 292
301 301 305 301 299 296 295 296 295 295 294 295 295 295 293 293 292 292 291 291 292 294 293 292 294 296 298 297 295 295 295 295 294 293 293 293 294 292 291 291 291 291 291 291
298 297 296 297 296 295 295 294 294 294 294 295 295 293 293 293 292 291 291 291 292 294 292 292 295 296 298 297 296 295 295 295 294 292 292 292 292 293 291 291 291 292 291 291
297 296 297 297 296 295 295 295 294 294 295 295 293 293 293 292 292 291 290 290 293 293 292 292 294 296 297 298 297 294 294 294 293 292 292 292 291 291 292 291 292 292 292 292
297 297 296 297 297 297 296 295 293 295 295 293 292 293 292 292 291 290 289 291 293 293 291 292 295 296 298 298 298 294 294 294 292 292 292 291 291 291 291 291 290 291 291 292
Wind_Speed
18 9 8 9 10 10 10 8 10 13 5 3 10 8 6 2 12 15 22 29 29 30 34 36 39 40 41 43 41 46 44 42 43 42 40 39 39 41 40 37 36 36 38 35
6 10 6 7 12 15 6 9 8 6 7 3 9 9 5 3 8 18 25 28 32 34 38 39 40 42 44 48 46 39 47 42 42 39 40 37 38 40 40 41 40 40 38 36
13 9 9 11 12 16 6 8 12 9 9 8 5 6 5 5 5 22 25 29 32 36 39 42 44 47 47 47 49 46 43 45 37 41 38 42 45 39 41 38 37 37 35 34
8 13 11 8 9 12 4 15 15 11 5 1 1 1 4 6 9 19 26 32 34 36 40 43 47 46 52 53 43 49 45 41 41 37 38 45 42 42 39 40 39 39 37 38
4 9 12 9 8 10 6 23 19 13 5 3 2 3 3 10 14 18 28 33 36 39 41 46 43 53 50 42 55 43 48 47 48 46 46 44 44 42 42 40 38 37 39 38
7 8 7 7 13 4 19 19 4 4 2 2 4 2 5 6 14 17 28 32 38 41 46 43 52 51 46 53 47 53 51 51 49 46 43 41 40 39 38 37 39 38 37 36
6 10 3 20 5 3 17 14 4 4 4 3 12 7 4 8 11 17 27 35 41 41 42 52 50 50 53 54 55 58 55 52 47 41 40 39 39 38 38 35 32 34 35 35
6 2 9 14 9 7 7 9 4 4 4 7 15 4 5 10 21 27 32 36 40 43 51 44 49 52 56 56 53 56 55 53 49 43 40 39 37 39 39 37 35 31 31 34
7 3 5 8 9 9 6 6 2 4 7 4 3 4 6 19 23 27 34 39 41 46 44 52 51 51 57 50 54 55 53 52 49 46 43 42 41 41 41 37 35 34 30 27
5 3 2 1 2 11 6 6 3 4 5 6 6 6 6 19 19 24 35 40 43 51 48 52 48 52 53 52 56 52 49 50 49 47 46 46 44 42 36 33 37 37 30 23
6 3 3 2 7 8 5 5 5 1 2 2 4 2 12 15 18 23 36 39 43 39 50 48 51 52 51 57 57 54 54 55 54 52 50 48 43 38 34 34 37 39 33 21
4 3 3 5 4 4 7 5 6 3 6 3 2 5 19 27 28 33 37 40 43 45 48 48 51 51 54 58 58 57 55 56 54 51 47 47 43 41 37 33 35 38 21 8
7 2 2 3 2 2 4 4 4 1 1 4 2 5 27 24 30 35 35 41 39 46 49 49 53 51 54 56 57 55 52 55 54 51 50 48 46 45 39 35 32 31 25 11
4 2 3 1 2 1 1 3 4 4 2 4 6 13 16 19 21 35 38 36 41 43 45 48 52 52 55 55 55 52 51 53 52 52 53 51 49 47 41 37 35 30 23 14
3 2 3 4 2 1 2 3 3 4 6 2 9 11 14 19 27 34 38 36 45 46 46 49 53 54 54 55 55 51 49 49 49 51 52 53 48 46 44 44 44 40 25 17
2 2 3 2 3 2 4 4 4 7 6 6 9 9 21 29 29 34 32 41 43 44 46 47 52 54 52 52 52 51 50 46 43 46 49 50 49 46 48 49 46 40 35 34
3 3 3 1 3 3 3 2 2 5 6 6 5 7 24 24 29 36 31 43 42 43 46 45 51 51 49 50 50 49 47 43 39 46 46 47 47 47 44 45 47 46 42 41
2 2 1 3 1 2 3 4 3 5 6 6 6 14 21 24 31 30 35 38 40 42 43 47 48 49 48 47 48 46 44 41 40 43 44 42 43 42 45 41 44 48 47 45
8 1 1 1 3 3 3 2 3 4 4 7 7 17 21 26 27 20 36 39 39 40 38 46 43 45 43 45 48 44 43 40 39 41 44 39 38 37 39 40 41 41 46 49
1 3 3 2 1 3 3 4 2 2 2 13 15 17 22 28 12 20 39 39 39 38 43 42 42 42 41 44 46 43 42 41 40 37 42 39 36 34 31 35 37 37 41 44
2 2 0 2 1 0 5 3 1 3 4 14 15 18 20 18 22 32 36 38 37 35 42 43 38 42 39 43 44 43 41 41 38 31 35 41 36 34 30 28 33 32 35 38
2 4 2 1 1 4 8 2 1 1 7 11 14 17 21 24 28 31 33 36 37 37 41 45 38 41 37 41 44 42 40 38 35 31 30 33 41 36 37 35 35 34 34 37
1 4 2 4 2 10 6 4 2 2 6 10 13 17 20 24 27 30 34 36 37 37 40 43 36 38 36 39 42 40 37 37 34 33 29 29 31 40 38 40 41 41 41 41
4 4 2 4 6 9 6 2 2 1 4 8 11 15 18 23 26 29 32 35 35 34 38 41 34 38 38 37 41 36 34 36 33 31 29 28 30 30 39 40 41 42 42 42
2 11 6 3 9 8 5 5 3 1 4 7 10 13 17 21 25 27 31 33 33 34 40 34 32 36 35 34 39 35 34 36 33 29 27 27 29 28 27 34 38 38 36 37
10 6 4 2 15 8 14 9 3 2 2 7 11 15 18 20 24 27 31 31 31 34 40 33 29 33 34 32 36 35 31 34 33 29 28 26 27 27 27 27 30 36 36 36
Wind_Direction
55 60 33 10 14 334 279 297 356 347 115 101 108 126 107 25 38 6 0 4 355 351 346 342 342 340 338 334 330 327 326 323 318 318 312 308 302 298 295 291 290 283 279 276
89 49 354 314 27 347 337 21 4 317 356 29 133 124 127 74 33 10 9 1 354 349 345 344 343 340 337 332 330 330 325 324 321 316 312 309 305 299 294 291 287 283 280 280
71 9 338 15 29 358 6 28 341 305 321 47 153 129 181 158 352 8 7 2 354 349 344 343 341 336 337 336 332 330 329 325 323 318 310 304 309 292 291 289 287 283 278 272
62 22 17 32 29 358 281 354 310 292 322 68 213 330 104 36 5 1 5 359 350 348 344 341 339 338 336 336 337 332 332 326 326 324 314 313 316 309 300 299 289 282 278 274
23 34 16 13 353 347 307 311 295 267 201 239 178 301 156 37 0 1 360 354 349 346 344 339 341 336 338 340 335 333 337 334 332 327 326 322 318 313 307 300 293 283 277 274
93 82 36 337 311 59 325 324 132 75 190 121 356 317 57 11 9 352 355 350 347 344 342 343 338 342 342 337 340 339 338 337 335 331 329 325 319 314 310 304 298 287 279 273
105 47 87 12 349 350 352 352 359 355 4 297 360 57 81 23 19 360 352 349 344 345 345 339 345 345 341 341 341 342 341 340 341 338 336 335 332 329 324 318 303 292 284 275
337 315 17 357 28 303 351 34 56 310 328 289 301 70 173 39 15 3 354 347 344 346 342 347 347 345 342 344 340 341 344 345 349 348 344 342 340 338 332 328 321 306 283 273
0 69 140 46 19 17 334 32 246 275 262 295 135 71 229 13 7 359 353 347 346 346 345 348 346 346 345 342 343 346 351 356 356 354 351 350 349 345 337 333 328 319 308 282
9 285 45 21 268 44 76 353 360 317 357 312 344 75 343 1 354 358 352 347 346 339 350 347 348 346 346 346 351 357 1 1 1 359 357 354 351 344 341 338 329 326 317 293
8 238 134 145 33 24 353 21 349 208 55 308 325 69 27 357 5 354 345 343 341 347 347 347 347 346 348 354 356 360 2 2 360 359 358 355 354 353 355 359 357 344 323 302
60 303 16 60 87 4 66 29 20 70 330 307 173 259 18 9 0 351 339 340 337 350 347 348 347 348 351 355 357 0 5 3 1 358 1 2 2 2 3 6 14 3 4 347
352 12 295 171 223 213 53 43 4 192 161 229 79 278 354 356 354 343 340 337 350 348 348 348 349 350 352 354 358 4 9 7 1 5 7 6 7 7 9 13 18 22 13 28
327 329 33 251 46 238 353 109 48 10 239 316 267 320 333 353 347 338 340 341 350 347 347 347 350 350 355 355 358 4 8 9 2 7 8 10 12 13 17 20 24 26 24 11
30 340 351 99 77 342 314 301 179 168 246 182 294 327 355 347 337 335 334 349 349 347 349 350 349 348 354 359 359 4 7 6 6 9 7 10 15 20 26 30 30 37 36 42
358 357 325 213 164 270 283 237 261 275 341 312 323 313 351 333 335 335 343 354 347 346 347 348 347 350 356 359 355 1 1 5 1 8 7 11 20 25 30 31 36 46 54 42
342 348 360 93 198 293 253 284 19 351 342 318 325 329 341 335 340 331 359 349 344 345 347 348 345 350 357 0 357 356 359 2 359 3 8 12 16 24 32 36 42 46 50 53
7 57 27 273 225 304 138 50 345 326 320 45 351 336 336 337 330 330 351 346 344 345 347 347 345 354 360 1 358 356 2 3 2 3 8 16 15 25 27 35 46 46 49 52
15 43 55 41 299 127 172 129 21 50 339 48 345 339 340 340 332 335 346 347 345 345 346 346 348 358 4 3 360 3 4 4 7 8 11 17 22 27 29 21 33 48 52 54
302 89 95 4 359 295 81 111 47 183 133 3 0 350 347 345 346 330 340 342 344 347 345 347 352 5 8 5 4 5 9 13 7 14 14 20 27 26 35 37 26 31 48 54
95 360 189 286 281 330 109 116 327 29 282 357 357 351 348 341 328 326 336 342 345 347 350 349 359 6 10 6 7 7 13 21 7 18 15 21 28 33 38 44 44 44 38 48
176 152 203 93 9 285 144 161 72 350 352 352 353 347 341 333 333 336 340 343 347 348 353 353 1 7 12 9 9 7 15 19 7 17 24 21 23 38 46 49 53 52 54 51
265 174 186 160 223 119 143 89 63 12 341 349 348 344 340 333 337 340 342 345 347 350 351 355 2 8 13 10 11 8 15 20 10 19 28 31 25 30 46 51 53 57 56 56
191 157 170 32 142 156 154 177 119 358 331 344 349 342 340 334 339 342 343 347 348 351 352 357 4 10 11 10 11 13 19 22 12 25 30 36 36 27 33 47 51 52 55 58
123 149 176 231 134 129 175 171 180 348 7 346 345 348 340 341 341 344 346 350 349 350 351 5 7 9 11 9 11 15 23 23 16 27 32 41 42 41 36 36 45 53 52 53
185 181 167 190 153 119 168 176 195 104 346 350 351 357 348 347 345 349 350 353 351 350 355 8 10 8 13 11 13 14 24 26 14 27 34 40 47 47 50 51 49 52 54 55